Volver al catálogo

CZ-6A DEB

ActivoPO
NORAD 60844·DEBRIS·🇨🇳 China

Lanzado Aug 6, 2024 desde Taiyuan Satellite Launch Center

Loading…

Próximos Pases (próximas 24 horas)

TLE

ActualizadoSource: Space-Track

Época: Sep 14, 2026, 04:19 UTC

1 60844U 24140HX  26257.18010575  .00000319  00000-0  99169-4 0  9993
2 60844  88.6132 226.2873 0092141 303.3668  55.8737 14.36186754109424

Sigue CZ-6A DEB en tiempo real con AllMySat

Download on the App Store